This is the latest recevied weather packets stored in our database for station/object K5GHS-1. If no packets are shown the sender has not sent any weather packets the latest 10 day(s).
| Time | Temp. | Humidity | Pressure | Rain* | Wind** | Luminosity | Snow |
|---|---|---|---|---|---|---|---|
| 1777947440 | 24.44° C | 69% | 1004.4 hPa | 0 mm | - | 0 W/m² | - |
| 1777947138 | 24.44° C | 69% | 1004.4 hPa | 0 mm | - | 0 W/m² | - |
| 1777946833 | 24.44° C | 68% | 1004.4 hPa | 0 mm | - | 0 W/m² | - |
| 1777946529 | 24.44° C | 68% | 1004.4 hPa | 0 mm | - | 0 W/m² | - |
| 1777946226 | 24.44° C | 68% | 1004.5 hPa | 0 mm | - | 0 W/m² | - |
| 1777945923 | 24.44° C | 67% | 1004.5 hPa | 0 mm | - | 0 W/m² | - |
| 1777945620 | 24.44° C | 67% | 1004.3 hPa | 0 mm | - | 0 W/m² | - |
| 1777945317 | 24.44° C | 67% | 1004.4 hPa | 0 mm | - | 0 W/m² | - |
| 1777945014 | 24.44° C | 67% | 1004.6 hPa | 0 mm | - | 0 W/m² | - |
| 1777944711 | 24.44° C | 67% | 1004.4 hPa | 0 mm | - | 0 W/m² | - |
| 1777944410 | 25° C | 67% | 1004.2 hPa | 0 mm | - | 0 W/m² | - |
| 1777944107 | 25° C | 66% | 1004.3 hPa | 0 mm | - | 0 W/m² | - |
| 1777943802 | 25° C | 66% | 1004.3 hPa | 0 mm | - | 0 W/m² | - |
| 1777943500 | 25° C | 66% | 1004.4 hPa | 0 mm | - | 0 W/m² | - |
| 1777943200 | 25° C | 66% | 1004.4 hPa | 0 mm | - | 1 W/m² | - |
| 1777942897 | 25° C | 65% | 1004.1 hPa | 0 mm | - | 1 W/m² | - |
| 1777942593 | 25° C | 65% | 1004.3 hPa | 0 mm | - | 4 W/m² | - |
| 1777942290 | 25° C | 65% | 1004.2 hPa | 0 mm | - | 6 W/m² | - |
| 1777941987 | 25° C | 64% | 1004.2 hPa | 0 mm | - | 9 W/m² | - |
| 1777941684 | 25° C | 64% | 1004 hPa | 0 mm | - | 15 W/m² | - |
| 1777941381 | 25° C | 64% | 1004.2 hPa | 0 mm | - | 19 W/m² | - |
| 1777941079 | 25° C | 63% | 1004.3 hPa | 0 mm | - | 24 W/m² | - |
| 1777940774 | 25.56° C | 63% | 1004.3 hPa | 0 mm | - | 23 W/m² | - |
| 1777940473 | 25.56° C | 63% | 1004.6 hPa | 0 mm | - | 23 W/m² | - |
| 1777940169 | 25.56° C | 63% | 1004.5 hPa | 0 mm | - | 25 W/m² | - |
* Rain latest hour (hover to see other rain measurements)
** Current wind speed in m/s (hover to see current wind gust speed)